Wind_Speed
46 46 45 42 36 36 37 41 44 37 35 38 43 61 60 43 41 27 29 22 20 25 18 20 26 28 30 19 36 41 34 19 22 24 22 22 21 21 23 19 18 16 17 19
47 44 46 46 40 42 43 48 47 37 40 48 50 54 64 43 37 40 31 29 24 19 14 13 21 24 26 20 34 37 34 31 22 21 19 18 24 22 22 24 21 20 14 15
48 47 46 50 47 48 48 52 43 44 47 48 48 51 55 50 43 37 38 33 25 25 22 17 11 18 27 24 19 34 36 28 33 27 26 22 24 25 25 24 22 22 25 23
43 44 48 51 52 55 54 62 48 51 55 58 51 41 39 53 52 46 30 39 28 27 19 19 17 19 19 26 29 28 31 38 28 29 24 17 20 23 26 27 27 29 25 24
48 47 47 50 56 57 63 69 52 45 34 54 50 45 44 48 50 49 47 36 38 26 24 15 18 13 14 15 23 34 29 30 32 31 25 25 23 21 22 23 24 26 26 26
57 51 48 52 59 64 68 68 67 38 50 33 45 53 47 52 44 48 46 42 33 35 26 12 16 20 20 13 10 21 25 31 29 30 27 27 31 28 25 23 24 23 25 21
49 54 53 54 65 68 70 68 58 45 41 47 50 46 43 44 50 48 43 37 40 30 31 31 22 24 22 19 12 14 23 23 30 20 20 16 21 21 21 23 23 21 22 21
49 53 58 55 65 60 67 66 69 57 43 37 39 40 40 38 43 41 41 41 32 35 17 18 18 24 26 26 19 13 16 22 22 21 23 21 21 25 24 21 22 21 23 23
50 53 54 60 54 59 61 64 64 57 51 45 34 30 37 34 41 47 37 37 35 20 31 22 22 13 21 10 14 23 17 18 25 16 22 19 27 25 18 17 25 22 20 19
53 51 51 52 55 51 69 61 61 65 46 33 27 36 34 33 39 47 42 39 39 31 33 28 26 21 22 24 9 14 21 23 24 25 15 17 20 20 18 19 24 11 15 15
49 55 50 51 56 56 67 59 60 60 51 29 25 26 28 31 37 47 46 42 38 29 26 22 17 17 22 20 27 9 19 21 21 21 18 16 18 20 24 23 15 14 13 14
52 51 54 50 50 55 60 65 56 53 53 33 23 24 28 34 35 46 47 45 43 31 28 23 22 18 16 17 22 27 19 11 18 16 15 19 19 25 22 21 18 16 17 16
48 51 47 48 51 47 63 61 55 52 52 41 23 30 37 35 40 46 48 46 34 31 27 20 17 14 18 20 19 12 15 27 31 20 15 16 15 16 15 14 16 20 21 20
44 45 45 42 53 57 66 53 48 51 44 31 19 20 30 32 42 53 52 33 38 27 26 29 23 22 16 19 19 20 20 14 20 31 32 32 27 20 20 24 23 23 22 23
40 43 43 44 54 52 63 51 51 39 37 28 31 24 20 25 33 54 48 37 37 27 32 35 30 21 15 16 20 25 20 21 24 25 18 22 23 23 30 26 25 28 26 28
42 41 44 47 52 58 58 47 46 34 42 18 16 24 22 26 34 47 40 36 36 33 29 29 27 23 22 17 24 23 24 25 27 24 25 27 24 21 24 22 24 27 28 30
45 40 43 45 49 49 47 40 39 42 40 30 8 7 19 19 27 40 34 35 30 27 27 23 23 23 29 28 28 20 16 20 25 27 25 25 28 31 30 31 30 30 32 31
42 38 42 49 49 44 37 29 20 30 34 34 13 7 11 29 37 44 43 40 33 28 24 18 21 20 22 21 26 24 23 21 21 19 21 26 27 28 28 30 30 30 29 27
43 46 43 44 39 33 23 21 14 24 28 18 19 17 17 23 31 35 40 37 37 25 30 28 19 24 21 24 29 24 18 22 24 25 26 26 28 27 28 31 32 33 32 29
41 38 41 38 32 29 24 15 9 15 26 18 22 29 28 7 38 36 33 22 26 23 26 24 27 27 20 18 21 22 25 24 18 20 22 22 23 26 28 30 31 30 29 30
39 39 27 30 24 19 11 9 11 12 13 25 27 33 25 8 22 38 22 21 16 12 17 23 16 20 23 31 31 27 23 25 26 24 23 24 27 27 28 25 27 28 28 28
36 30 29 28 25 9 6 10 8 7 8 9 22 32 26 16 27 31 15 14 12 8 16 17 8 21 24 27 36 38 40 36 33 31 25 25 26 25 21 19 18 20 19 16
32 34 24 7 5 5 8 10 7 7 10 15 16 9 8 18 19 12 8 7 7 14 13 8 10 16 20 27 31 28 31 33 31 30 30 31 24 15 10 11 13 14 16 16
31 10 6 3 3 4 7 12 9 5 6 13 15 11 4 6 5 8 5 7 8 7 7 7 7 8 10 15 19 23 24 27 28 26 25 15 10 11 10 8 7 8 8 7
6 4 4 4 4 9 13 12 10 7 12 12 15 12 7 4 1 3 5 7 4 7 8 10 7 7 8 9 12 13 12 13 11 9 9 7 5 3 4 6 6 4 3 3
5 3 7 10 8 8 15 16 11 7 13 18 16 11 8 8 5 5 4 7 4 7 11 8 9 12 12 12 13 13 12 10 8 6 5 3 3 3 2 3 3 2 1 2
6 2 6 7 9 10 10 20 18 14 17 18 7 5 4 6 5 6 8 8 10 14 14 14 13 13 14 15 13 12 9 6 5 5 6 6 7 6 4 3 1 2 4 7
Wind_Direction
261 251 243 233 228 216 217 212 219 229 206 198 213 212 218 213 222 219 219 229 229 228 227 221 215 215 218 216 208 208 206 211 216 217 222 218 217 217 223 235 241 234 255 272
253 245 237 229 220 213 213 211 214 219 208 206 211 220 222 217 222 221 220 225 228 228 221 228 220 220 206 233 207 209 204 216 219 219 204 213 225 226 228 231 241 253 226 250
245 242 236 225 219 210 211 204 205 211 213 220 219 220 218 218 218 225 221 223 224 227 230 228 229 222 220 211 224 213 207 211 214 217 214 215 222 227 229 234 235 244 252 267
237 238 232 221 213 209 209 203 208 209 207 213 215 223 222 215 214 219 223 226 215 223 229 224 224 229 213 230 219 212 212 217 216 226 227 226 221 224 229 233 239 244 254 258
236 234 232 221 211 208 210 207 205 209 218 214 212 213 219 221 217 214 221 224 220 225 230 234 200 205 218 213 221 218 205 217 221 232 227 232 235 234 234 239 241 248 253 257
233 226 229 216 207 207 209 211 209 213 212 210 209 214 216 215 217 218 218 221 225 223 219 202 208 220 196 194 214 216 209 213 217 230 231 235 239 234 240 243 244 246 250 258
227 221 219 215 207 209 213 211 208 204 210 210 219 217 217 219 209 216 212 217 219 220 219 235 229 208 203 205 235 204 214 209 216 218 225 231 233 236 240 247 247 246 252 261
224 218 217 220 210 213 209 212 207 204 206 215 218 217 217 218 216 216 214 209 213 217 218 232 247 237 229 220 221 229 215 212 219 210 222 239 239 233 234 240 248 252 259 260
221 215 213 216 210 210 213 211 212 203 212 214 214 213 211 212 211 209 213 212 224 198 225 227 229 218 220 252 229 219 216 207 214 207 230 238 239 242 244 248 258 253 257 259
214 208 207 208 207 207 212 208 209 208 210 210 208 210 209 207 209 207 204 204 201 207 208 220 220 214 212 228 219 204 198 215 214 219 236 244 237 233 228 221 247 269 252 254
209 205 204 204 204 200 210 208 205 207 205 213 206 206 210 206 206 205 197 200 201 197 202 208 211 218 210 221 227 212 212 206 215 221 235 232 219 221 214 252 275 258 257 260
197 198 200 198 199 196 206 205 202 204 203 205 199 200 201 219 211 199 198 206 197 201 205 211 213 217 205 213 225 231 241 216 224 223 234 236 240 241 249 252 251 259 270 267
184 188 191 192 191 195 201 200 197 196 205 210 209 212 215 210 203 193 202 207 207 205 207 209 213 209 206 200 210 218 234 240 247 251 249 249 245 234 240 250 269 276 270 271
169 177 180 180 183 195 193 192 196 195 194 194 205 214 214 215 195 196 195 201 198 218 208 213 215 214 218 226 230 239 236 250 238 251 253 255 254 248 258 275 272 275 270 272
161 162 172 172 179 179 193 196 192 196 193 209 216 220 221 221 203 194 194 186 202 193 204 213 216 216 221 231 232 231 232 235 247 252 267 257 262 263 273 262 262 263 260 271
153 151 159 169 175 186 189 188 191 192 197 204 204 225 227 218 201 207 178 180 202 213 214 225 231 231 223 233 241 246 242 239 241 252 251 251 254 254 257 264 258 260 265 273
145 152 159 163 179 186 189 185 197 193 196 200 195 222 227 214 210 206 192 184 190 197 206 214 210 207 215 227 236 235 244 238 243 249 250 255 254 255 260 266 269 270 273 274
139 145 161 171 179 181 181 191 190 192 205 212 221 246 220 220 203 193 190 192 187 202 204 201 204 206 216 229 237 241 237 247 244 246 244 245 255 262 266 268 270 272 276 270
156 158 157 166 174 172 178 188 184 196 201 200 211 221 241 193 186 188 191 199 203 207 215 212 210 222 230 238 246 251 251 240 252 250 247 246 259 261 264 270 274 278 280 278
144 147 158 159 165 175 184 177 179 180 195 208 219 230 251 239 166 172 187 170 184 203 214 214 221 230 237 236 238 227 230 251 244 243 241 247 256 262 269 274 274 273 270 268
145 150 139 154 164 170 166 175 163 179 198 217 233 238 245 264 189 178 174 177 174 192 206 203 220 234 231 227 235 232 232 230 227 229 238 246 263 268 266 266 274 278 276 267
149 148 145 139 139 127 154 163 180 178 192 224 233 239 245 238 146 165 143 162 156 173 179 184 210 223 232 232 233 237 233 233 242 252 256 267 264 263 269 275 279 273 258 257
141 140 132 115 135 156 176 176 168 180 194 211 240 227 56 99 126 133 129 143 163 146 166 195 220 234 237 226 223 232 235 234 240 253 254 260 254 243 265 275 270 260 262 259
135 125 126 132 152 173 176 176 189 206 212 209 218 224 315 357 88 107 105 132 147 154 164 196 203 210 211 206 212 220 231 234 235 236 246 225 226 242 260 266 263 264 267 269
106 117 113 139 150 156 167 176 193 195 168 177 181 215 246 231 66 152 132 153 157 178 186 175 169 162 163 174 175 173 180 182 178 185 186 184 182 233 261 256 246 234 235 244
39 36 120 141 140 155 177 176 174 162 153 149 141 151 160 178 184 164 157 158 168 178 166 162 168 165 152 146 142 146 153 159 165 173 184 198 195 184 172 144 121 96 31 313
334 353 143 147 154 163 168 182 176 154 147 156 116 143 140 140 170 164 172 186 178 168 159 157 164 159 152 153 155 157 158 161 165 168 159 154 145 141 130 109 94 302 291 288
Height
2929 2935 2943 2950 2958 2967 2972 2978 2977 2982 2996 3001 3002 3000 3000 3015 3021 3027 3030 3032 3034 3037 3040 3039 3042 3040 3047 3051 3056 3058 3064 3068 3068 3072 3075 3077 3077 3080 3082 3082 3082 3082 3083 3081
2913 2920 2928 2937 2946 2953 2961 2964 2969 2979 2986 2980 2985 2986 2992 3007 3015 3019 3024 3027 3032 3034 3035 3037 3037 3039 3043 3047 3050 3053 3060 3061 3065 3067 3071 3071 3072 3074 3076 3077 3079 3077 3081 3081
2897 2904 2913 2923 2932 2941 2950 2956 2959 2966 2967 2972 2973 2973 2981 2996 3005 3011 3019 3023 3027 3029 3030 3032 3032 3035 3038 3041 3046 3051 3055 3055 3056 3057 3060 3066 3069 3070 3072 3073 3073 3075 3074 3074
2881 2888 2897 2908 2918 2928 2936 2938 2937 2943 2946 2949 2961 2976 2983 2986 2993 3002 3009 3014 3018 3024 3027 3028 3028 3034 3036 3037 3041 3045 3049 3049 3053 3055 3057 3058 3060 3063 3066 3067 3068 3068 3070 3069
2866 2874 2881 2892 2904 2914 2918 2921 2928 2937 2946 2952 2957 2967 2972 2979 2989 2999 3000 3008 3015 3020 3023 3025 3024 3028 3034 3033 3036 3039 3043 3044 3049 3050 3053 3054 3055 3057 3059 3060 3062 3063 3064 3064
2847 2857 2866 2876 2886 2896 2894 2909 2924 2933 2936 2944 2955 2948 2957 2967 2983 2989 2998 3008 3014 3015 3021 3020 3019 3023 3026 3026 3031 3034 3038 3041 3043 3043 3048 3050 3048 3051 3054 3056 3057 3058 3059 3061
2829 2838 2849 2860 2869 2875 2885 2897 2913 2924 2928 2936 2931 2949 2957 2963 2971 2982 2991 3002 3007 3015 3013 3015 3017 3018 3021 3023 3026 3028 3034 3036 3039 3041 3044 3041 3044 3048 3050 3051 3052 3053 3054 3056
2813 2823 2834 2841 2855 2864 2876 2891 2902 2913 2921 2930 2939 2942 2951 2961 2969 2976 2985 2993 2999 3010 3007 3013 3016 3016 3018 3019 3021 3025 3028 3031 3033 3034 3035 3038 3038 3041 3044 3046 3047 3048 3048 3049
2797 2809 2819 2831 2841 2856 2868 2882 2897 2910 2919 2919 2934 2941 2948 2955 2963 2973 2978 2990 2997 2997 3004 3009 3010 3010 3016 3018 3020 3019 3024 3025 3028 3030 3030 3028 3035 3038 3039 3042 3039 3042 3043 3043
2783 2797 2810 2822 2835 2847 2859 2873 2888 2904 2911 2923 2928 2933 2939 2949 2957 2963 2974 2983 2984 2995 2997 3003 3004 3004 3008 3013 3009 3014 3016 3018 3019 3024 3024 3023 3028 3031 3034 3036 3037 3037 3037 3038
2771 2787 2801 2814 2827 2840 2853 2865 2881 2894 2907 2917 2923 2928 2934 2942 2949 2956 2966 2976 2980 2986 2992 2995 2997 2997 2999 3005 3006 3006 3009 3013 3015 3020 3020 3021 3022 3025 3027 3028 3030 3031 3032 3033
2761 2777 2793 2808 2821 2834 2848 2861 2878 2892 2905 2913 2915 2923 2925 2934 2941 2952 2959 2961 2969 2975 2983 2988 2992 2992 2993 2997 2999 3005 3006 3008 3010 3014 3015 3017 3017 3021 3022 3024 3025 3026 3026 3027
2757 2774 2791 2804 2817 2829 2843 2859 2874 2887 2900 2908 2912 2917 2921 2926 2932 2942 2954 2959 2968 2975 2978 2984 2986 2987 2989 2993 2995 2999 3000 3004 3005 3009 3009 3011 3012 3015 3016 3018 3019 3019 3020 3020
2761 2776 2790 2800 2815 2830 2846 2859 2872 2887 2897 2902 2911 2913 2915 2920 2928 2931 2941 2951 2964 2970 2974 2976 2979 2982 2985 2987 2990 2992 2995 2999 2999 2999 3002 3005 3006 3008 3011 3010 3011 3013 3013 3013
2768 2780 2792 2805 2817 2834 2849 2862 2876 2885 2898 2901 2905 2908 2912 2916 2919 2927 2935 2944 2955 2958 2965 2968 2971 2977 2982 2981 2983 2984 2990 2992 2993 2993 2997 2997 2999 3001 3002 3004 3005 3006 3006 3006
2778 2788 2798 2810 2825 2837 2850 2864 2877 2885 2890 2898 2902 2904 2907 2913 2916 2919 2927 2939 2950 2956 2959 2962 2967 2972 2976 2976 2974 2980 2982 2986 2987 2989 2990 2992 2993 2995 2995 2996 2997 2997 2997 2997
2787 2796 2808 2821 2833 2846 2858 2867 2874 2881 2889 2896 2899 2901 2902 2909 2916 2920 2925 2930 2942 2950 2953 2956 2961 2967 2967 2968 2967 2975 2978 2980 2980 2980 2983 2985 2985 2986 2988 2988 2989 2989 2989 2988
2798 2808 2820 2831 2841 2853 2863 2869 2877 2886 2890 2895 2900 2900 2901 2904 2907 2914 2925 2929 2937 2942 2946 2951 2954 2958 2960 2960 2963 2967 2971 2974 2974 2974 2975 2977 2978 2979 2979 2980 2980 2980 2980 2979
2810 2820 2830 2841 2851 2861 2866 2872 2878 2883 2891 2893 2897 2896 2896 2899 2906 2913 2923 2928 2933 2938 2940 2944 2952 2952 2952 2956 2959 2961 2964 2966 2967 2968 2970 2971 2971 2971 2971 2972 2972 2971 2971 2972
2825 2833 2842 2851 2859 2863 2867 2875 2880 2884 2886 2889 2892 2892 2891 2892 2900 2910 2916 2920 2928 2932 2935 2942 2943 2944 2950 2955 2954 2955 2957 2958 2960 2962 2963 2964 2964 2965 2965 2965 2964 2964 2963 2963
2835 2841 2849 2857 2863 2869 2875 2879 2882 2884 2886 2886 2888 2889 2887 2894 2899 2906 2914 2918 2923 2928 2931 2936 2937 2939 2943 2942 2945 2949 2950 2952 2953 2954 2956 2957 2958 2958 2957 2957 2957 2956 2956 2955
2842 2847 2855 2862 2867 2872 2875 2878 2881 2882 2885 2886 2888 2893 2891 2887 2892 2905 2906 2913 2918 2921 2924 2929 2929 2930 2931 2934 2936 2938 2941 2944 2946 2948 2949 2950 2950 2951 2951 2950 2950 2949 2949 2949
2853 2857 2862 2865 2869 2871 2871 2874 2877 2880 2882 2884 2884 2886 2884 2888 2891 2899 2904 2909 2913 2917 2921 2922 2923 2923 2923 2925 2928 2931 2934 2937 2939 2941 2942 2943 2944 2944 2944 2944 2945 2945 2945 2945
2860 2863 2865 2866 2867 2869 2870 2874 2877 2879 2882 2883 2886 2889 2891 2891 2895 2897 2902 2907 2911 2914 2916 2918 2919 2919 2920 2921 2923 2926 2928 2930 2932 2934 2936 2937 2938 2939 2940 2940 2941 2942 2943 2943
2862 2864 2865 2867 2866 2867 2869 2873 2878 2879 2881 2884 2888 2891 2894 2894 2897 2901 2904 2907 2909 2912 2913 2915 2917 2918 2919 2919 2920 2922 2924 2926 2928 2930 2932 2934 2935 2936 2937 2939 2940 2940 2941 2943
2864 2865 2868 2868 2869 2869 2870 2874 2875 2878 2881 2885 2890 2893 2898 2900 2901 2903 2905 2907 2909 2910 2912 2913 2915 2917 2919 2920 2921 2922 2924 2925 2927 2929 2931 2933 2934 2935 2936 2937 2939 2941 2942 2942
2866 2866 2866 2868 2870 2873 2874 2875 2878 2882 2884 2887 2889 2892 2895 2899 2900 2902 2904 2906 2907 2909 2909 2911 2914 2916 2919 2920 2922 2924 2925 2927 2928 2930 2931 2932 2934 2935 2936 2937 2939 2940 2941 2941